IZ1GCT Weather Reports


Display with metric or nautical units.
time (UTC)temp
F
wind
direction
speed
MPH
gust
MPH
rain 1hr
in
rain 24hr
in
rain mn
in
humidity
%
barometer
mb
20260506021055 52 122 3.0 5.0 0.00 0.17 0.00 99 1012.5
20260506020557 52 157 3.0 6.0 0.00 0.17 0.00 99 1012.7
20260506020056 52 135 3.0 3.0 0.00 0.17 0.00 99 1012.6
20260506015555 52 120 2.0 3.0 0.00 0.17 0.00 99 1012.6
20260506015057 52 139 3.0 6.0 0.00 0.17 0.00 98 1012.7
20260506014556 52 158 2.0 5.0 0.00 0.17 0.00 98 1012.7
20260506014056 52 139 2.0 3.0 0.00 0.17 0.00 98 1012.6
20260506013557 52 114 1.0 3.0 0.00 0.17 0.00 98 1012.7
20260506013056 53 135 2.0 3.0 0.00 0.17 0.00 97 1012.7
20260506012558 53 135 3.0 5.0 0.00 0.17 0.00 97 1012.7
20260506012057 53 132 2.0 5.0 0.00 0.17 0.00 97 1012.8
20260506011556 53 124 2.0 3.0 0.00 0.17 0.00 97 1012.8
20260506011056 53 135 3.0 5.0 0.00 0.17 0.00 96 1012.9
20260506010557 53 116 1.0 2.0 0.00 0.17 0.00 96 1013.0
20260506010057 53 135 1.0 2.0 0.00 0.17 0.00 96 1013.1
20260506005556 53 135 1.0 2.0 0.00 0.17 0.00 95 1013.3
20260506005057 53 135 2.0 3.0 0.00 0.17 0.00 95 1013.4
20260506004557 53 155 1.0 2.0 0.00 0.17 0.00 95 1013.6
20260506004056 53 128 2.0 3.0 0.00 0.17 0.00 95 1013.7
20260506003558 53 135 1.0 1.0 0.00 0.17 0.00 94 1013.7
20260506003057 53 158 0.0 1.0 0.00 0.17 0.00 94 1013.7
20260506002557 53 158 2.0 3.0 0.00 0.17 0.00 94 1013.8
20260506002056 53 135 1.0 2.0 0.00 0.17 0.00 94 1013.8
20260506001557 53 158 1.0 1.0 0.00 0.17 0.00 93 1014.0
20260506001056 53 158 0.0 1.0 0.00 0.17 0.00 93 1014.0
20260506000557 53 158 0.0 0.0 0.00 0.17 0.00 93 1014.1
20260506000057 53 158 0.0 1.0 0.00 0.17 0.00 93 1014.1
20260505235556 53 158 0.0 1.0 0.00 0.17 0.00 94 1014.2
20260505235056 53 112 0.0 0.0 0.00 0.17 0.00 94 1014.1
20260505234557 53 112 1.0 1.0 0.00 0.17 0.00 94 1014.2
20260505234056 53 135 0.0 0.0 0.00 0.17 0.00 94 1014.4
20260505233556 53 135 1.0 1.0 0.00 0.17 0.00 94 1014.4
20260505233057 53 145 2.0 3.0 0.00 0.17 0.00 94 1014.5
20260505232557 53 158 1.0 2.0 0.00 0.17 0.00 94 1014.5
20260505232057 53 151 3.0 5.0 0.00 0.17 0.00 94 1014.6
20260505231556 53 158 1.0 2.0 0.00 0.17 0.00 94 1014.5
20260505231057 53 158 1.0 2.0 0.00 0.17 0.00 94 1014.7
20260505230557 53 158 0.0 1.0 0.00 0.18 0.00 94 1014.8
20260505230057 53 158 0.0 0.0 0.00 0.18 0.00 94 1014.8
20260505225557 53 137 0.0 0.0 0.00 0.18 0.00 94 1014.7
20260505225057 53 135 1.0 1.0 0.00 0.18 0.00 94 1014.7
20260505224556 53 135 0.0 1.0 0.00 0.18 0.00 94 1014.7
20260505224057 53 135 1.0 2.0 0.00 0.18 0.00 94 1014.7
20260505223557 53 135 1.0 2.0 0.00 0.18 0.00 94 1014.6
20260505223057 53 135 0.0 1.0 0.00 0.18 0.00 94 1014.7
20260505222556 53 135 0.0 0.0 0.00 0.18 0.00 94 1014.6
20260505222057 53 135 0.0 1.0 0.00 0.18 0.00 95 1014.9
20260505221557 53 135 0.0 0.0 0.00 0.18 0.00 95 1015.0
20260505221056 53 152 3.0 5.0 0.00 0.18 0.00 95 1014.9
20260505220556 53 158 3.0 6.0 0.00 0.18 0.00 95 1015.1
20260505220057 53 158 1.0 2.0 0.00 0.18 0.00 95 1014.9
20260505215557 53 158 1.0 1.0 0.00 0.18 0.18 95 1015.2
20260505215056 53 135 2.0 3.0 0.00 0.18 0.18 95 1015.1
20260505214558 52 135 0.0 1.0 0.00 0.18 0.18 95 1015.1
20260505214057 53 158 0.0 0.0 0.00 0.18 0.18 95 1015.0
20260505213556 53 158 0.0 0.0 0.00 0.18 0.18 95 1015.0
20260505213056 52 158 0.0 0.0 0.00 0.18 0.18 95 1015.1
20260505212557 52 158 1.0 1.0 0.00 0.18 0.18 94 1015.2
20260505212057 52 158 2.0 3.0 0.00 0.19 0.18 94 1015.2
20260505211556 52 135 0.0 0.0 0.00 0.19 0.18 94 1015.2
20260505211057 52 135 0.0 1.0 0.00 0.19 0.18 94 1015.4
20260505210557 52 158 1.0 1.0 0.00 0.19 0.18 94 1015.5
20260505210056 52 158 0.0 0.0 0.00 0.20 0.18 93 1015.4
20260505205556 52 158 1.0 2.0 0.00 0.20 0.18 93 1015.5
20260505205058 52 158 0.0 1.0 0.00 0.20 0.18 93 1015.5
20260505204557 52 158 1.0 2.0 0.00 0.20 0.18 92 1015.5
20260505204056 52 136 2.0 3.0 0.00 0.20 0.18 92 1015.6
20260505203557 52 158 2.0 3.0 0.00 0.20 0.18 92 1015.5
20260505203056 53 158 0.0 0.0 0.00 0.21 0.18 92 1015.5
20260505202557 53 158 0.0 0.0 0.00 0.21 0.18 92 1015.5
20260505202057 53 158 0.0 0.0 0.00 0.21 0.18 92 1015.4
20260505201556 53 158 0.0 0.0 0.00 0.21 0.18 92 1015.4
20260505201057 53 158 0.0 0.0 0.00 0.21 0.18 92 1015.4
20260505200557 53 158 1.0 2.0 0.00 0.21 0.18 92 1015.4
20260505200056 53 158 1.0 2.0 0.00 0.24 0.18 92 1015.4
20260505195556 53 158 1.0 2.0 0.00 0.24 0.18 92 1015.4
20260505195057 54 158 0.0 0.0 0.00 0.24 0.18 91 1015.4
20260505194557 54 158 2.0 3.0 0.00 0.25 0.18 91 1015.4
20260505194056 54 158 0.0 1.0 0.00 0.25 0.18 91 1015.2
20260505193557 54 158 1.0 1.0 0.00 0.26 0.18 91 1015.2
20260505193057 54 158 1.0 2.0 0.00 0.26 0.18 90 1015.1
20260505192556 54 158 1.0 2.0 0.00 0.27 0.18 90 1015.2
20260505192057 54 158 1.0 1.0 0.00 0.27 0.18 88 1015.2
20260505191556 55 158 0.0 0.0 0.00 0.27 0.18 84 1015.2
20260505191056 55 158 1.0 1.0 0.00 0.27 0.18 84 1015.2
20260505190557 55 158 0.0 1.0 0.00 0.27 0.18 83 1015.2
20260505190056 55 158 0.0 1.0 0.00 0.28 0.18 83 1015.2
20260505185557 55 158 1.0 1.0 0.00 0.28 0.18 83 1015.2
20260505185057 55 158 2.0 3.0 0.00 0.28 0.18 82 1015.1
20260505184556 55 158 1.0 2.0 0.00 0.28 0.18 81 1015.1
20260505184056 55 158 1.0 2.0 0.00 0.28 0.18 81 1015.0
20260505183557 56 158 1.0 1.0 0.00 0.28 0.18 81 1015.1
20260505183057 56 158 0.0 0.0 0.00 0.30 0.18 80 1015.1
20260505182556 56 158 0.0 1.0 0.00 0.30 0.18 80 1015.0
20260505182057 56 158 0.0 1.0 0.00 0.31 0.18 80 1015.1
20260505181556 53 164 0.0 1.0 0.00 0.31 0.18 78 1013.6
20260505181057 56 135 0.0 0.0 0.00 0.32 0.18 78 1015.0
20260505180557 56 149 0.0 1.0 0.00 0.33 0.18 78 1015.0
20260505180057 56 158 0.0 0.0 0.00 0.33 0.18 78 1014.8
20260505175556 56 135 0.0 1.0 0.00 0.34 0.18 78 1014.9
20260505175058 57 135 0.0 1.0 0.00 0.34 0.18 76 1014.9
20260505174557 57 141 0.0 1.0 0.00 0.35 0.18 75 1014.9
20260505174058 57 158 0.0 1.0 0.00 0.35 0.18 74 1014.8
20260505173557 57 135 0.0 1.0 0.00 0.37 0.18 74 1014.8
20260505173058 57 135 0.0 1.0 0.00 0.37 0.18 73 1014.8
20260505172556 57 135 1.0 1.0 0.00 0.37 0.18 73 1014.9
20260505172057 58 135 0.0 1.0 0.00 0.38 0.18 73 1014.9
20260505171556 58 119 0.0 1.0 0.00 0.39 0.18 73 1015.0
20260505171055 58 135 0.0 1.0 0.00 0.39 0.18 72 1014.9
20260505170557 58 135 2.0 3.0 0.00 0.40 0.18 72 1014.8
20260505170056 58 135 1.0 1.0 0.00 0.40 0.18 72 1015.0
20260505165555 58 158 1.0 3.0 0.00 0.41 0.18 72 1014.9
20260505165057 58 141 2.0 3.0 0.00 0.41 0.18 72 1014.9
20260505164557 58 120 0.0 1.0 0.00 0.41 0.18 72 1015.0
20260505164058 58 158 2.0 3.0 0.00 0.43 0.18 72 1015.1
20260505163557 58 135 2.0 3.0 0.00 0.43 0.18 72 1015.1
20260505163057 58 135 1.0 1.0 0.00 0.43 0.18 72 1015.2
20260505162556 58 135 0.0 1.0 0.00 0.43 0.18 72 1015.2
20260505162058 58 135 1.0 2.0 0.00 0.43 0.18 71 1015.2
20260505161557 57 135 3.0 6.0 0.00 0.43 0.18 70 1015.2
20260505161056 58 135 0.0 2.0 0.00 0.43 0.18 71 1015.0
20260505160555 59 129 2.0 6.0 0.00 0.43 0.18 71 1015.0
20260505153050 59 158 2.0 3.0 0.00 0.43 0.18 71 1014.9
20260505152549 59 135 1.0 2.0 0.00 0.43 0.18 71 1015.0
20260505152050 59 136 1.0 2.0 0.00 0.43 0.18 71 1015.0
20260505151549 59 129 2.0 3.0 0.00 0.43 0.18 71 1015.0
20260505151048 59 135 2.0 3.0 0.00 0.43 0.18 71 1015.0
20260505150548 59 158 1.0 2.0 0.00 0.43 0.18 71 1015.1
20260505140548 60 158 1.0 3.0 0.00 0.44 0.18 69 1015.6
20260505124549 57 135 3.0 5.0 0.01 0.44 0.18 73 1016.0
20260505124048 57 150 1.0 2.0 0.01 0.44 0.18 73 1016.0
20260505123548 56 121 3.0 6.0 0.01 0.44 0.18 72 1016.0
20260505123047 57 124 2.0 5.0 0.01 0.44 0.18 71 1016.0
20260505122549 57 129 2.0 3.0 0.01 0.44 0.18 72 1016.0
20260505122048 57 158 0.0 1.0 0.01 0.44 0.18 72 1016.1
20260505121548 57 158 1.0 2.0 0.01 0.44 0.18 73 1016.1
20260505121047 57 135 2.0 3.0 0.01 0.44 0.18 73 1016.1
20260505120549 57 141 1.0 2.0 0.01 0.44 0.18 73 1016.0
20260505120048 57 135 1.0 1.0 0.00 0.43 0.17 73 1016.1
20260505115549 57 158 1.0 2.0 0.00 0.43 0.17 72 1016.1
20260505115049 56 135 2.0 3.0 0.00 0.43 0.17 72 1016.2
20260505114548 56 145 1.0 3.0 0.00 0.43 0.17 72 1016.2
20260505114047 56 143 1.0 2.0 0.00 0.43 0.17 73 1016.3
20260505113549 55 135 2.0 3.0 0.00 0.43 0.17 72 1016.2
20260505113048 56 116 2.0 3.0 0.00 0.43 0.17 72 1016.4
20260505112548 56 137 1.0 3.0 0.00 0.43 0.17 71 1016.3
20260505112047 56 139 1.0 2.0 0.00 0.43 0.17 71 1016.4
20260505111548 56 135 1.0 2.0 0.00 0.43 0.17 71 1016.5
20260505111048 56 135 1.0 1.0 0.00 0.43 0.17 71 1016.5
20260505110547 57 136 2.0 3.0 0.00 0.44 0.17 71 1016.5
20260505102047 54 148 1.0 2.0 0.00 0.44 0.17 79 1016.7
20260505101549 54 158 2.0 3.0 0.00 0.44 0.17 80 1016.7
20260505101048 54 135 2.0 3.0 0.00 0.44 0.17 82 1016.7
20260505100547 54 135 1.0 3.0 0.00 0.44 0.17 82 1016.7
20260505100049 53 158 3.0 3.0 0.00 0.44 0.17 82 1016.7
20260505095548 53 143 0.0 1.0 0.00 0.44 0.17 82 1016.7
20260505095048 53 137 2.0 3.0 0.00 0.44 0.17 82 1016.7
20260505094549 53 135 0.0 2.0 0.00 0.44 0.17 82 1016.6
20260505094048 53 143 1.0 2.0 0.00 0.44 0.17 81 1016.6
20260505093548 53 112 1.0 2.0 0.00 0.44 0.17 81 1016.7
20260505093049 53 135 2.0 3.0 0.00 0.44 0.17 81 1016.7
20260505092548 53 149 2.0 3.0 0.00 0.44 0.17 81 1016.7
20260505092048 53 135 2.0 3.0 0.00 0.44 0.17 82 1016.6
20260505091548 53 131 1.0 2.0 0.00 0.44 0.17 82 1016.5
20260505091049 53 90 1.0 2.0 0.00 0.44 0.17 82 1016.4
20260505090548 53 187 1.0 2.0 0.00 0.44 0.17 81 1016.5
20260505090048 53 225 1.0 1.0 0.00 0.44 0.17 81 1016.5
20260505085549 52 180 1.0 1.0 0.00 0.44 0.17 81 1016.4
20260505085048 52 180 1.0 2.0 0.00 0.44 0.17 81 1016.3
20260505084549 52 180 0.0 1.0 0.00 0.44 0.17 80 1016.3
20260505084048 51 226 2.0 3.0 0.00 0.44 0.17 80 1016.2
20260505083548 51 244 2.0 3.0 0.00 0.44 0.17 80 1016.2
20260505083049 51 270 2.0 3.0 0.00 0.44 0.17 79 1016.2
20260505082548 51 230 2.0 3.0 0.00 0.44 0.17 79 1016.2
20260505082048 51 243 2.0 5.0 0.00 0.44 0.17 80 1016.2
20260505081548 51 270 2.0 3.0 0.00 0.44 0.17 80 1016.2
20260505081049 51 270 2.0 3.0 0.00 0.44 0.17 80 1016.2
20260505080548 51 270 5.0 6.0 0.00 0.44 0.17 79 1016.2
20260505080048 51 270 3.0 3.0 0.00 0.44 0.17 79 1016.2
20260505075548 50 270 5.0 6.0 0.00 0.44 0.17 79 1016.2
20260505075048 50 270 3.0 6.0 0.00 0.44 0.17 80 1016.2
20260505074548 50 268 5.0 6.0 0.00 0.44 0.17 80 1016.3
20260505074049 50 270 3.0 3.0 0.00 0.44 0.17 80 1016.2
20260505073548 50 270 3.0 3.0 0.00 0.44 0.17 79 1016.2
20260505073048 50 270 5.0 7.0 0.00 0.44 0.17 78 1016.2
20260505072547 50 270 5.0 7.0 0.00 0.44 0.17 78 1016.2
20260505072048 50 254 3.0 5.0 0.00 0.44 0.17 78 1016.2
20260505071548 50 270 6.0 7.0 0.00 0.44 0.17 79 1016.2
20260505071049 50 270 6.0 7.0 0.00 0.44 0.17 81 1016.2
20260505070547 50 270 2.0 6.0 0.00 0.44 0.17 81 1016.2
20260505070049 50 270 2.0 3.0 0.00 0.44 0.17 81 1016.2
20260505065548 50 225 0.0 1.0 0.00 0.44 0.17 82 1016.3
20260505065047 49 225 0.0 1.0 0.00 0.44 0.17 82 1016.3
20260505064549 49 229 1.0 2.0 0.00 0.44 0.17 81 1016.2
20260505064048 49 180 1.0 3.0 0.00 0.44 0.17 81 1016.3
20260505063547 49 247 3.0 6.0 0.00 0.44 0.17 81 1016.4
20260505063049 49 216 2.0 6.0 0.00 0.44 0.17 81 1016.3
20260505062548 49 278 2.0 6.0 0.00 0.44 0.17 82 1016.3
20260505062048 49 270 2.0 3.0 0.00 0.44 0.17 83 1016.3
20260505061547 49 303 3.0 3.0 0.00 0.44 0.17 82 1016.3
20260505061049 49 282 3.0 6.0 0.00 0.44 0.17 82 1016.4
20260505060548 49 270 3.0 3.0 0.00 0.44 0.17 82 1016.2
20260505060048 48 225 2.0 3.0 0.00 0.44 0.17 82 1016.4
20260505055547 48 244 3.0 6.0 0.00 0.44 0.17 82 1016.4
20260505055047 48 270 3.0 6.0 0.00 0.44 0.17 82 1016.5
20260505054549 48 270 3.0 6.0 0.00 0.44 0.17 82 1016.5
20260505054048 48 296 2.0 3.0 0.00 0.44 0.17 82 1016.4
20260505053547 48 270 5.0 6.0 0.00 0.44 0.17 83 1016.5
20260505053047 48 270 1.0 3.0 0.01 0.44 0.17 84 1016.5
20260505052548 48 270 2.0 3.0 0.01 0.44 0.17 85 1016.6
20260505052048 48 237 2.0 3.0 0.02 0.44 0.17 88 1016.6
20260505051547 49 270 2.0 3.0 0.04 0.44 0.17 90 1016.5
20260505051049 49 241 1.0 3.0 0.04 0.44 0.17 91 1016.6
20260505050548 49 273 1.0 3.0 0.04 0.44 0.17 92 1016.7
20260505041548 49 270 0.0 0.0 0.05 0.40 0.13 91 1016.9
20260505041047 49 270 0.0 0.0 0.06 0.40 0.13 91 1016.9
20260505040549 49 270 1.0 2.0 0.06 0.40 0.13 91 1017.0
20260505035552 49 199 1.0 5.0 0.05 0.38 0.11 91 1017.0
20260505035052 49 163 1.0 2.0 0.05 0.38 0.11 91 1017.2
20260505034551 49 270 0.0 0.0 0.06 0.38 0.11 91 1017.2
20260505034052 49 270 1.0 1.0 0.05 0.37 0.09 91 1017.3
20260505033553 50 256 2.0 5.0 0.06 0.37 0.09 91 1017.2
20260505033052 50 270 3.0 3.0 0.05 0.35 0.08 91 1017.2
20260505032552 50 270 2.0 3.0 0.05 0.35 0.08 90 1017.2
20260505032051 50 255 2.0 6.0 0.06 0.35 0.08 90 1017.2
20260505031553 50 270 2.0 3.0 0.07 0.35 0.08 90 1017.2
20260505031052 50 239 2.0 3.0 0.06 0.34 0.07 89 1017.1
20260505030552 49 270 5.0 6.0 0.06 0.34 0.07 88 1017.3
20260505030051 50 270 3.0 5.0 0.05 0.33 0.06 88 1017.3
20260505025552 50 287 2.0 3.0 0.05 0.33 0.06 88 1017.4
20260505025052 50 270 1.0 5.0 0.05 0.33 0.06 88 1017.3
20260505024553 50 270 2.0 3.0 0.04 0.32 0.05 88 1017.4
20260505024052 50 265 2.0 6.0 0.04 0.32 0.05 89 1017.4
20260505023552 50 270 2.0 3.0 0.02 0.31 0.04 89 1017.3
20260505023052 50 304 2.0 3.0 0.02 0.31 0.04 90 1017.3
20260505022552 50 270 2.0 3.0 0.02 0.31 0.04 90 1017.3
20260505022051 50 242 1.0 2.0 0.01 0.30 0.02 91 1017.3
20260505021552 50 270 2.0 3.0 0.00 0.28 0.01 91 1017.3